PROMETHEUS 2-3 (41855 NORAD) Tracking and Keplerian Element Data

This shows tracking and keplerian element data for the satellite.

Feedback or suggestion? Click here.




ElementValue
Catalog41855
NamePROMETHEUS 2-3
Epoch Orbit10945
Epoch Day317.81281756
Epoch Year2018
RAAN47.6688
Inclination97.9233
Eccentricity0.0011315
Argument of Perigee36.3923
Mean Anonmoly323.8065
Mean Motion14.96703996
Decay Rate8.01E-06
L11 41855U 16067H 18317.81281756 .00000801 00000-0 75433-4 0 9996
L22 41855 97.9233 47.6688 0011315 36.3923 323.8065 14.96703996109454

Live tracking and technical data element details for PROMETHEUS 2-3 (NORAD 41855). PROMETHEUS 2-3 can be tracked NOW for your location showing map with azimuth and elevation plus other details from your city location.

Track the satellite on the map from your city or location and see movement details for azimuth, elevation, latitude, longitude, range, height, and movement on the map or in text.







IsCatalogInMostPopularTable: catalog: 41855, numindb: 109
Update: records affected: 1



GetName: 41855 PROMETHEUS 2-3

Hit Count: updated at: Wed, 14 Nov 2018 11:16:35 GMT